This is the latest recevied weather packets stored in our database for station/object K8DJB-1. If no packets are shown the sender has not sent any weather packets the latest 1 day(s).
| Time | Temp. | Humidity | Pressure | Rain* | Wind** | Luminosity | Snow |
|---|---|---|---|---|---|---|---|
| 1778109297 | 11.67° C | 42% | 1012.1 hPa | 0 mm | - | - | - |
| 1778097297 | 12.22° C | 37% | 1012.6 hPa | 0 mm | - | - | - |
| 1778096097 | 12.22° C | 37% | 1012.4 hPa | 0 mm | - | - | - |
| 1778095797 | 11.67° C | 36% | 1012.6 hPa | 0 mm | - | - | - |
| 1778094600 | 11.67° C | 37% | 1012.6 hPa | 0 mm | - | - | - |
| 1778093985 | 11.67° C | 39% | 1012.6 hPa | 0 mm | - | - | - |
| 1778093648 | 11.67° C | 39% | 1012.7 hPa | 0 mm | - | - | - |
| 1778092719 | 12.22° C | 39% | 1012.5 hPa | 0 mm | - | - | - |
| 1778089910 | 11.67° C | 37% | 1012.2 hPa | 0 mm | - | - | - |
| 1778089237 | 12.22° C | 37% | 1012.2 hPa | 0 mm | - | - | - |
| 1778088937 | 12.22° C | 39% | 1012.3 hPa | 0 mm | - | - | - |
| 1778087737 | 11.67° C | 38% | 1012.5 hPa | 0 mm | - | - | - |
| 1778087437 | 11.67° C | 38% | 1012.5 hPa | 0 mm | - | - | - |
| 1778086537 | 11.11° C | 39% | 1012.6 hPa | 0 mm | - | - | - |
| 1778085037 | 11.11° C | 41% | 1012.4 hPa | 0 mm | - | - | - |
| 1778084737 | 11.11° C | 42% | 1012.5 hPa | 0 mm | - | - | - |
| 1778083837 | 10.56° C | 42% | 1012.7 hPa | 0 mm | - | - | - |
| 1778083537 | 10.56° C | 44% | 1012.6 hPa | 0 mm | - | - | - |
| 1778082937 | 10.56° C | 44% | 1012.8 hPa | 0 mm | - | - | - |
| 1778081737 | 10.56° C | 43% | 1012.7 hPa | 0 mm | - | - | - |
| 1778081137 | 10° C | 43% | 1012.6 hPa | 0 mm | - | - | - |
| 1778080837 | 10.56° C | 43% | 1012.5 hPa | 0 mm | - | - | - |
| 1778080537 | 10.56° C | 43% | 1012.7 hPa | 0 mm | - | - | - |
| 1778080237 | 10.56° C | 43% | 1012.8 hPa | 0 mm | - | - | - |
| 1778079937 | 10° C | 45% | 1012.8 hPa | 0 mm | - | - | - |
* Rain latest hour (hover to see other rain measurements)
** Current wind speed in m/s (hover to see current wind gust speed)